Location: Abbey Hill
(34.0751°N, 84.0688°W)
Time: 00:39:21
(UTC+00:00)

Envisat - Pass Details

Date: 30 September 2021
Orbit: 764 x 766 km, 98.2° (Epoch: 17 October)

Event Time Altitude Azimuth Distance (km) Brightness Sun altitude
Rises 10:54:05 0° 9° (N) 3,234 6.4 -8.3°
Reaches altitude 10° 10:56:24 10° 7° (N) 2,304 5.6 -7.8°
Maximum altitude 11:01:26 68° 285° (WNW) 820 3.0 -6.8°
Drops below altitude 10° 11:06:27 10° 203° (SSW) 2,291 5.2 -5.8°
Sets 11:08:45 0° 200° (SSW) 3,213 6.0 -5.3°
